Location: Oberwangen
(47.4286°N, 8.9679°E)
Time: 08:08:09
(UTC+00:00)

Cosmos 1447 Rocket - Pass Details

Date: 31 October 2021
Orbit: 953 x 996 km, 82.9° (Epoch: 27 November)

Event Time Altitude Azimuth Distance (km) Brightness Sun altitude
Rises 16:29:49 0° 356° (N) 3,643 7.4 -4.3°
Reaches altitude 10° 16:32:31 10° 4° (N) 2,693 6.6 -4.7°
Maximum altitude 16:38:13 38° 72° (ENE) 1,422 4.9 -5.6°
Drops below altitude 10° 16:43:54 10° 140° (SE) 2,690 6.6 -6.6°
Sets 16:46:35 0° 148° (SSE) 3,637 7.3 -7.0°
